Back to catalog

FENGYUN 1C DEB

LostPO
NORAD 35120·DEBRIS·🇨🇳 China

Launched May 10, 1999 from Taiyuan Satellite Launch Center

Loading…

Next Passes (next 24 hours)

TLE

StaleSource: Space-Track

Epoch: Apr 29, 2024, 18:12 UTC

1 35120U 99025DKY 24120.75889122  .00006764  00000-0  32032-2 0  9992
2 35120  98.0114 102.1968 0139706 237.1498 121.6165 14.14887692554122

Track FENGYUN 1C DEB in real time with AllMySat

Download on the App Store